Time,TemperatureF,DewpointF,PressureIn,WindDirection,WindDirectionDegrees,WindSpeedMPH,WindSpeedGustMPH,Humidity,HourlyPrecipIn,Conditions,Clouds,dailyrainin,SoftwareType,DateUTC
2013-02-17 00:02:00,19.0,16.0,-100.00,WNW,300,6.0,11.0,85,1.10,,,-99.99,,2013-02-17 05:02:00,
2013-02-17 00:12:00,19.0,16.0,-100.00,WNW,285,6.0,11.0,86,6.22,,,-99.99,,2013-02-17 05:12:00,
2013-02-17 00:22:00,19.0,14.0,-100.00,West,270,7.0,15.0,80,1.69,,,-99.99,,2013-02-17 05:22:00,
2013-02-17 00:33:00,18.0,14.0,-100.00,NW,305,6.0,14.0,82,5.08,,,-99.99,,2013-02-17 05:33:00,
2013-02-17 00:42:00,17.0,12.0,-100.00,NW,305,9.0,18.0,80,7.36,,,-99.99,,2013-02-17 05:42:00,
2013-02-17 00:52:00,17.0,13.0,-100.00,NW,305,6.0,13.0,82,0.00,,,-99.99,,2013-02-17 05:52:00,
2013-02-17 01:02:00,17.0,11.0,-100.00,WNW,300,4.0,9.0,78,0.00,,,-99.99,,2013-02-17 06:02:00,
2013-02-17 01:11:00,17.0,9.0,-100.00,West,270,4.0,10.0,72,0.00,,,-99.99,,2013-02-17 06:11:00,
2013-02-17 01:21:00,17.0,9.0,-100.00,WNW,290,2.0,7.0,68,0.00,,,-99.99,,2013-02-17 06:21:00,
2013-02-17 01:32:00,17.0,6.0,-100.00,West,270,4.0,11.0,63,0.00,,,-99.99,,2013-02-17 06:32:00,
2013-02-17 01:41:00,17.0,5.0,-100.00,West,280,8.0,12.0,60,0.00,,,-99.99,,2013-02-17 06:41:00,
2013-02-17 01:51:00,16.0,5.0,-100.00,West,265,6.0,14.0,61,0.00,,,-99.99,,2013-02-17 06:51:00,
2013-02-17 02:01:00,16.0,6.0,-100.00,West,280,4.0,9.0,63,0.00,,,-99.99,,2013-02-17 07:01:00,
2013-02-17 02:11:00,16.0,4.0,-100.00,West,280,7.0,13.0,60,0.00,,,-99.99,,2013-02-17 07:11:00,
2013-02-17 02:21:00,15.0,4.0,-100.00,WNW,300,4.0,11.0,60,0.00,,,-99.99,,2013-02-17 07:21:00,
2013-02-17 02:32:00,15.0,4.0,-100.00,West,280,6.0,10.0,60,0.00,,,-99.99,,2013-02-17 07:32:00,
2013-02-17 02:41:00,16.0,4.0,-100.00,WNW,295,7.0,12.0,58,0.00,,,-99.99,,2013-02-17 07:41:00,
2013-02-17 02:51:00,15.0,4.0,-100.00,WNW,285,6.0,10.0,60,0.00,,,-99.99,,2013-02-17 07:51:00,
2013-02-17 03:01:00,15.0,4.0,-100.00,West,275,1.0,9.0,60,0.00,,,-99.99,,2013-02-17 08:01:00,
2013-02-17 03:11:00,16.0,5.0,-100.00,NW,305,4.0,6.0,62,0.00,,,-99.99,,2013-02-17 08:11:00,
2013-02-17 03:21:00,16.0,5.0,-100.00,WSW,255,4.0,9.0,61,0.00,,,-99.99,,2013-02-17 08:21:00,
2013-02-17 03:32:00,16.0,5.0,-100.00,WSW,245,4.0,9.0,62,0.00,,,-99.99,,2013-02-17 08:32:00,
2013-02-17 03:42:00,16.0,5.0,-100.00,WSW,255,7.0,9.0,61,0.00,,,-99.99,,2013-02-17 08:42:00,
2013-02-17 03:52:00,16.0,5.0,-100.00,WNW,295,6.0,9.0,62,0.00,,,-99.99,,2013-02-17 08:52:00,
2013-02-17 04:02:00,16.0,6.0,-100.00,WNW,295,7.0,17.0,64,0.00,,,-99.99,,2013-02-17 09:02:00,
2013-02-17 04:11:00,16.0,6.0,-100.00,West,270,4.0,12.0,64,0.00,,,-99.99,,2013-02-17 09:11:00,
2013-02-17 04:21:00,15.0,5.0,-100.00,WSW,250,6.0,10.0,63,0.00,,,-99.99,,2013-02-17 09:21:00,
2013-02-17 04:32:00,15.0,6.0,-100.00,West,260,3.0,8.0,65,0.00,,,-99.99,,2013-02-17 09:32:00,
2013-02-17 04:42:00,15.0,5.0,-100.00,WSW,255,4.0,7.0,66,0.00,,,-99.99,,2013-02-17 09:42:00,
2013-02-17 04:51:00,15.0,6.0,-100.00,West,265,4.0,7.0,67,0.00,,,-99.99,,2013-02-17 09:51:00,
2013-02-17 05:01:00,15.0,6.0,-100.00,WSW,245,4.0,7.0,67,0.00,,,-99.99,,2013-02-17 10:01:00,
2013-02-17 05:11:00,14.0,6.0,-100.00,West,265,3.0,7.0,68,0.00,,,-99.99,,2013-02-17 10:11:00,
2013-02-17 05:21:00,14.0,6.0,-100.00,West,260,4.0,7.0,69,0.00,,,-99.99,,2013-02-17 10:21:00,
2013-02-17 05:32:00,14.0,6.0,-100.00,WSW,245,1.0,6.0,70,0.00,,,-99.99,,2013-02-17 10:32:00,
2013-02-17 05:41:00,14.0,7.0,-100.00,West,265,1.0,5.0,71,0.00,,,-99.99,,2013-02-17 10:41:00,
2013-02-17 05:52:00,14.0,6.0,-100.00,WSW,250,4.0,9.0,71,0.00,,,-99.99,,2013-02-17 10:52:00,
2013-02-17 06:01:00,14.0,6.0,-100.00,WSW,250,2.0,8.0,72,0.00,,,-99.99,,2013-02-17 11:01:00,
2013-02-17 06:11:00,14.0,6.0,-100.00,West,275,3.0,7.0,72,0.00,,,-99.99,,2013-02-17 11:11:00,
2013-02-17 06:21:00,14.0,7.0,-100.00,West,265,4.0,9.0,73,0.00,,,-99.99,,2013-02-17 11:21:00,
2013-02-17 06:32:00,13.0,7.0,-100.00,WSW,255,3.0,8.0,73,0.00,,,-99.99,,2013-02-17 11:32:00,
2013-02-17 06:42:00,13.0,7.0,-100.00,WSW,250,2.0,6.0,74,0.00,,,-99.99,,2013-02-17 11:42:00,
2013-02-17 06:52:00,13.0,6.0,-100.00,SW,215,2.0,6.0,75,0.00,,,-99.99,,2013-02-17 11:52:00,
2013-02-17 07:03:00,13.0,6.0,-100.00,SSW,205,2.0,4.0,75,0.00,,,-99.99,,2013-02-17 12:03:00,
2013-02-17 07:11:00,13.0,7.0,-100.00,West,270,3.0,6.0,74,0.00,,,-99.99,,2013-02-17 12:11:00,
2013-02-17 07:22:00,13.0,6.0,-100.00,West,280,1.0,6.0,75,0.00,,,-99.99,,2013-02-17 12:22:00,
2013-02-17 07:32:00,13.0,7.0,-100.00,WNW,295,3.0,7.0,76,0.00,,,-99.99,,2013-02-17 12:32:00,
2013-02-17 07:42:00,13.0,7.0,-100.00,WSW,245,4.0,7.0,75,0.00,,,-99.99,,2013-02-17 12:42:00,
2013-02-17 07:52:00,13.0,7.0,-100.00,WSW,245,3.0,7.0,76,0.00,,,-99.99,,2013-02-17 12:52:00,
2013-02-17 08:02:00,13.0,7.0,-100.00,WNW,285,3.0,7.0,76,0.00,,,-99.99,,2013-02-17 13:02:00,
2013-02-17 08:12:00,13.0,7.0,-100.00,West,280,4.0,9.0,76,0.00,,,-99.99,,2013-02-17 13:12:00,
2013-02-17 08:22:00,13.0,8.0,-100.00,West,270,4.0,7.0,76,0.00,,,-99.99,,2013-02-17 13:22:00,
2013-02-17 08:32:00,15.0,8.0,-100.00,West,265,6.0,9.0,75,0.00,,,-99.99,,2013-02-17 13:32:00,
2013-02-17 08:41:00,15.0,8.0,-100.00,West,270,6.0,9.0,72,0.00,,,-99.99,,2013-02-17 13:41:00,
2013-02-17 08:51:00,16.0,9.0,-100.00,West,280,3.0,11.0,72,0.00,,,-99.99,,2013-02-17 13:51:00,
2013-02-17 09:01:00,17.0,9.0,-100.00,WNW,295,5.0,9.0,70,0.00,,,-99.99,,2013-02-17 14:01:00,
2013-02-17 09:11:00,18.0,10.0,-100.00,WNW,295,5.0,8.0,70,0.00,,,-99.99,,2013-02-17 14:11:00,
2013-02-17 09:21:00,18.0,10.0,-100.00,West,260,6.0,9.0,71,0.00,,,-99.99,,2013-02-17 14:21:00,
2013-02-17 09:32:00,18.0,10.0,-100.00,West,270,6.0,12.0,70,0.00,,,-99.99,,2013-02-17 14:32:00,
2013-02-17 09:42:00,19.0,11.0,-100.00,West,280,4.0,9.0,70,0.00,,,-99.99,,2013-02-17 14:42:00,
2013-02-17 09:52:00,19.0,10.0,-100.00,WSW,245,9.0,14.0,69,0.00,,,-99.99,,2013-02-17 14:52:00,
2013-02-17 10:02:00,20.0,11.0,-100.00,West,275,7.0,12.0,68,0.00,,,-99.99,,2013-02-17 15:02:00,
2013-02-17 10:11:00,20.0,11.0,-100.00,West,260,8.0,14.0,67,0.00,,,-99.99,,2013-02-17 15:11:00,
2013-02-17 10:21:00,20.0,11.0,-100.00,WNW,290,4.0,12.0,68,1.10,,,-99.99,,2013-02-17 15:21:00,
2013-02-17 10:32:00,21.0,11.0,-100.00,NW,310,5.0,11.0,64,0.55,,,-99.99,,2013-02-17 15:32:00,
2013-02-17 10:42:00,21.0,11.0,-100.00,WNW,285,4.0,10.0,64,0.00,,,-99.99,,2013-02-17 15:42:00,
2013-02-17 10:52:00,21.0,11.0,-100.00,WNW,295,9.0,13.0,65,0.00,,,-99.99,,2013-02-17 15:52:00,
2013-02-17 11:01:00,22.0,10.0,-100.00,West,260,7.0,13.0,61,1.69,,,-99.99,,2013-02-17 16:01:00,
2013-02-17 11:11:00,21.0,10.0,-100.00,WSW,240,8.0,12.0,62,0.00,,,-99.99,,2013-02-17 16:11:00,
2013-02-17 11:21:00,22.0,12.0,-100.00,WSW,250,6.0,14.0,64,0.00,,,-99.99,,2013-02-17 16:21:00,
2013-02-17 11:32:00,22.0,10.0,-100.00,WSW,245,11.0,16.0,60,0.00,,,-99.99,,2013-02-17 16:32:00,
2013-02-17 11:42:00,22.0,8.0,-100.00,WSW,255,11.0,16.0,55,0.00,,,-99.99,,2013-02-17 16:42:00,
2013-02-17 11:51:00,22.0,7.0,-100.00,West,265,9.0,14.0,53,0.00,,,-99.99,,2013-02-17 16:51:00,
2013-02-17 12:02:00,22.0,7.0,-100.00,NW,310,5.0,12.0,53,0.00,,,-99.99,,2013-02-17 17:02:00,
2013-02-17 12:11:00,23.0,9.0,-100.00,WNW,295,7.0,12.0,56,0.00,,,-99.99,,2013-02-17 17:11:00,
2013-02-17 12:21:00,22.0,8.0,-100.00,WNW,300,6.0,16.0,54,0.00,,,-99.99,,2013-02-17 17:21:00,
2013-02-17 12:32:00,24.0,9.0,-100.00,WNW,295,6.0,16.0,51,0.00,,,-99.99,,2013-02-17 17:32:00,
2013-02-17 12:42:00,23.0,6.0,-100.00,WSW,255,9.0,14.0,47,0.00,,,-99.99,,2013-02-17 17:42:00,
2013-02-17 12:52:00,23.0,7.0,-100.00,WSW,255,9.0,12.0,48,0.00,,,-99.99,,2013-02-17 17:52:00,
2013-02-17 13:02:00,25.0,7.0,-100.00,WNW,285,9.0,15.0,45,0.00,,,-99.99,,2013-02-17 18:02:00,
2013-02-17 13:11:00,23.0,6.0,-100.00,WNW,300,9.0,16.0,45,0.00,,,-99.99,,2013-02-17 18:11:00,
2013-02-17 13:22:00,25.0,7.0,-100.00,WNW,290,4.0,12.0,46,0.00,,,-99.99,,2013-02-17 18:22:00,
2013-02-17 13:33:00,25.0,9.0,-100.00,NW,310,6.0,14.0,51,0.00,,,-99.99,,2013-02-17 18:33:00,
2013-02-17 13:42:00,26.0,9.0,-100.00,NW,315,6.0,10.0,47,0.00,,,-99.99,,2013-02-17 18:42:00,
2013-02-17 13:52:00,23.0,4.0,-100.00,WNW,290,9.0,16.0,43,0.00,,,-99.99,,2013-02-17 18:52:00,
2013-02-17 14:01:00,25.0,6.0,-100.00,West,265,6.0,12.0,44,0.00,,,-99.99,,2013-02-17 19:01:00,
2013-02-17 14:11:00,24.0,8.0,-100.00,West,265,6.0,12.0,48,0.00,,,-99.99,,2013-02-17 19:11:00,
2013-02-17 14:21:00,24.0,6.0,-100.00,WNW,290,6.0,14.0,44,0.00,,,-99.99,,2013-02-17 19:21:00,
2013-02-17 14:32:00,24.0,6.0,-100.00,WSW,255,7.0,16.0,44,0.00,,,-99.99,,2013-02-17 19:32:00,
2013-02-17 14:42:00,25.0,7.0,-100.00,NW,305,7.0,12.0,45,0.00,,,-99.99,,2013-02-17 19:42:00,
2013-02-17 14:51:00,24.0,8.0,-100.00,WNW,295,4.0,16.0,49,0.00,,,-99.99,,2013-02-17 19:51:00,
2013-02-17 15:02:00,24.0,6.0,-100.00,WNW,300,5.0,9.0,44,0.00,,,-99.99,,2013-02-17 20:02:00,
2013-02-17 15:11:00,25.0,7.0,-100.00,WNW,295,4.0,14.0,46,0.00,,,-99.99,,2013-02-17 20:11:00,
2013-02-17 15:21:00,27.0,6.0,-100.00,North,0,2.0,10.0,39,0.00,,,-99.99,,2013-02-17 20:21:00,
2013-02-17 15:32:00,27.0,6.0,-100.00,WNW,290,6.0,13.0,40,0.00,,,-99.99,,2013-02-17 20:32:00,
2013-02-17 15:42:00,26.0,6.0,-100.00,NNW,330,4.0,16.0,42,0.00,,,-99.99,,2013-02-17 20:42:00,
2013-02-17 15:52:00,25.0,6.0,-100.00,NW,310,7.0,14.0,42,0.00,,,-99.99,,2013-02-17 20:52:00,
2013-02-17 16:02:00,26.0,8.0,-100.00,NNW,335,6.0,16.0,44,0.00,,,-99.99,,2013-02-17 21:02:00,
2013-02-17 16:11:00,26.0,5.0,-100.00,WNW,300,3.0,11.0,40,0.00,,,-99.99,,2013-02-17 21:11:00,
2013-02-17 16:21:00,25.0,6.0,-100.00,West,275,9.0,16.0,44,0.00,,,-99.99,,2013-02-17 21:21:00,
2013-02-17 16:32:00,25.0,5.0,-100.00,West,270,6.0,11.0,42,0.00,,,-99.99,,2013-02-17 21:32:00,
2013-02-17 16:42:00,25.0,6.0,-100.00,WNW,290,8.0,13.0,42,0.00,,,-99.99,,2013-02-17 21:42:00,
2013-02-17 16:52:00,25.0,6.0,-100.00,WNW,300,7.0,11.0,43,0.00,,,-99.99,,2013-02-17 21:52:00,
2013-02-17 17:01:00,26.0,7.0,-100.00,WNW,285,4.0,9.0,43,0.00,,,-99.99,,2013-02-17 22:01:00,
2013-02-17 17:12:00,25.0,6.0,-100.00,WNW,295,7.0,12.0,44,0.00,,,-99.99,,2013-02-17 22:12:00,
2013-02-17 17:22:00,25.0,7.0,-100.00,WNW,300,4.0,12.0,44,0.00,,,-99.99,,2013-02-17 22:22:00,
2013-02-17 17:32:00,25.0,6.0,-100.00,SW,225,9.0,16.0,44,0.00,,,-99.99,,2013-02-17 22:32:00,
2013-02-17 17:42:00,25.0,7.0,-100.00,West,260,7.0,12.0,45,0.00,,,-99.99,,2013-02-17 22:42:00,
2013-02-17 17:52:00,25.0,8.0,-100.00,West,270,2.0,9.0,47,0.00,,,-99.99,,2013-02-17 22:52:00,
2013-02-17 18:02:00,25.0,7.0,-100.00,West,265,4.0,11.0,46,0.00,,,-99.99,,2013-02-17 23:02:00,
2013-02-17 18:11:00,25.0,7.0,-100.00,West,265,4.0,8.0,45,0.00,,,-99.99,,2013-02-17 23:11:00,
2013-02-17 18:21:00,25.0,7.0,-100.00,NW,310,4.0,9.0,46,0.00,,,-99.99,,2013-02-17 23:21:00,
2013-02-17 18:32:00,25.0,7.0,-100.00,NW,305,3.0,6.0,46,0.00,,,-99.99,,2013-02-17 23:32:00,
2013-02-17 18:42:00,24.0,8.0,-100.00,NW,325,1.0,6.0,48,0.00,,,-99.99,,2013-02-17 23:42:00,
2013-02-17 18:52:00,24.0,8.0,-100.00,NW,320,0.0,2.0,49,0.00,,,-99.99,,2013-02-17 23:52:00,
2013-02-17 19:02:00,24.0,8.0,-100.00,WNW,285,2.0,5.0,48,0.00,,,-99.99,,2013-02-18 00:02:00,
2013-02-17 19:11:00,24.0,8.0,-100.00,NW,305,1.0,3.0,50,0.00,,,-99.99,,2013-02-18 00:11:00,
2013-02-17 19:22:00,24.0,8.0,-100.00,North,355,0.0,2.0,49,0.00,,,-99.99,,2013-02-18 00:22:00,
2013-02-17 19:32:00,24.0,8.0,-100.00,North,10,0.0,1.0,51,0.00,,,-99.99,,2013-02-18 00:32:00,
2013-02-17 19:41:00,23.0,8.0,-100.00,ENE,60,0.0,3.0,52,0.00,,,-99.99,,2013-02-18 00:41:00,
2013-02-17 19:52:00,23.0,9.0,-100.00,NNW,340,0.0,2.0,54,0.00,,,-99.99,,2013-02-18 00:52:00,
2013-02-17 20:01:00,21.0,11.0,-100.00,South,175,0.0,2.0,63,0.00,,,-99.99,,2013-02-18 01:01:00,
2013-02-17 20:12:00,21.0,11.0,-100.00,West,265,0.0,1.0,64,0.00,,,-99.99,,2013-02-18 01:12:00,
2013-02-17 20:21:00,20.0,12.0,-100.00,SW,230,0.0,2.0,70,0.00,,,-99.99,,2013-02-18 01:21:00,
2013-02-17 20:32:00,20.0,12.0,-100.00,SW,225,0.0,2.0,70,0.00,,,-99.99,,2013-02-18 01:32:00,
2013-02-17 20:41:00,19.0,12.0,-100.00,SSW,195,0.0,0.0,71,0.00,,,-99.99,,2013-02-18 01:41:00,
2013-02-17 20:51:00,19.0,12.0,-100.00,SSW,195,0.0,1.0,72,0.00,,,-99.99,,2013-02-18 01:51:00,
2013-02-17 21:02:00,19.0,11.0,-100.00,SSE,155,0.0,1.0,73,0.00,,,-99.99,,2013-02-18 02:02:00,
2013-02-17 21:11:00,19.0,11.0,-100.00,NE,40,1.0,4.0,70,0.00,,,-99.99,,2013-02-18 02:11:00,
2013-02-17 21:22:00,18.0,11.0,-100.00,SW,220,0.0,2.0,73,0.00,,,-99.99,,2013-02-18 02:22:00,
2013-02-17 21:32:00,17.0,11.0,-100.00,South,190,0.0,0.0,75,0.00,,,-99.99,,2013-02-18 02:32:00,
2013-02-17 21:41:00,17.0,11.0,-100.00,SSE,165,0.0,2.0,74,0.00,,,-99.99,,2013-02-18 02:41:00,
2013-02-17 21:52:00,18.0,11.0,-100.00,NE,50,0.0,1.0,73,0.00,,,-99.99,,2013-02-18 02:52:00,
2013-02-17 22:02:00,17.0,11.0,-100.00,WSW,245,0.0,0.0,75,0.00,,,-99.99,,2013-02-18 03:02:00,
2013-02-17 22:11:00,17.0,11.0,-100.00,SSW,200,0.0,1.0,76,0.00,,,-99.99,,2013-02-18 03:11:00,
2013-02-17 22:21:00,17.0,11.0,-100.00,NNE,25,0.0,0.0,77,0.00,,,-99.99,,2013-02-18 03:21:00,
2013-02-17 22:32:00,16.0,10.0,-100.00,SSE,160,0.0,0.0,78,0.00,,,-99.99,,2013-02-18 03:32:00,
2013-02-17 22:42:00,17.0,11.0,-100.00,NNE,20,0.0,1.0,78,0.00,,,-99.99,,2013-02-18 03:42:00,
2013-02-17 22:51:00,15.0,10.0,-100.00,SSE,160,0.0,0.0,79,0.00,,,-99.99,,2013-02-18 03:51:00,
2013-02-17 23:01:00,15.0,10.0,-100.00,SSE,165,0.0,0.0,79,0.00,,,-99.99,,2013-02-18 04:01:00,
2013-02-17 23:11:00,15.0,10.0,-100.00,South,170,0.0,0.0,81,0.00,,,-99.99,,2013-02-18 04:11:00,
2013-02-17 23:21:00,15.0,10.0,-100.00,SSE,150,0.0,1.0,81,0.00,,,-99.99,,2013-02-18 04:21:00,
2013-02-17 23:32:00,15.0,10.0,-100.00,ENE,60,0.0,1.0,81,0.00,,,-99.99,,2013-02-18 04:32:00,
2013-02-17 23:42:00,15.0,10.0,-100.00,SSE,165,0.0,0.0,82,0.00,,,-99.99,,2013-02-18 04:42:00,
2013-02-17 23:51:00,14.0,10.0,-100.00,South,170,0.0,1.0,85,0.00,,,-99.99,,2013-02-18 04:51:00,